This is the latest recevied weather packets stored in our database for station/object KC3QLX. If no packets are shown the sender has not sent any weather packets the latest 10 day(s).
| Time | Temp. | Humidity | Pressure | Rain* | Wind** | Luminosity | Snow |
|---|---|---|---|---|---|---|---|
| 1777938975 | 19.44° C | 48% | 1008.4 hPa | 0 mm | - | 3 W/m² | - |
| 1777938672 | 19.44° C | 47% | 1008.8 hPa | 0 mm | - | 6 W/m² | - |
| 1777938369 | 20° C | 47% | 1008.5 hPa | 0 mm | - | 10 W/m² | - |
| 1777938066 | 20° C | 47% | 1008.3 hPa | 0 mm | - | 12 W/m² | - |
| 1777937762 | 20° C | 46% | 1008.2 hPa | 0 mm | - | 15 W/m² | - |
| 1777937458 | 20° C | 46% | 1008.4 hPa | 0 mm | - | 18 W/m² | - |
| 1777937155 | 20.56° C | 46% | 1008.1 hPa | 0 mm | - | 20 W/m² | - |
| 1777936853 | 20.56° C | 45% | 1007.9 hPa | 0 mm | - | 23 W/m² | - |
| 1777936549 | 20.56° C | 44% | 1007.9 hPa | 0 mm | - | 25 W/m² | - |
| 1777936245 | 21.11° C | 45% | 1008.1 hPa | 0 mm | - | 29 W/m² | - |
| 1777935942 | 21.11° C | 43% | 1008.1 hPa | 0 mm | - | 31 W/m² | - |
| 1777935641 | 21.11° C | 42% | 1007.9 hPa | 0 mm | - | 36 W/m² | - |
| 1777935338 | 21.67° C | 42% | 1007.8 hPa | 0 mm | - | 44 W/m² | - |
| 1777935035 | 21.67° C | 43% | 1007.9 hPa | 0 mm | - | 54 W/m² | - |
| 1777934731 | 21.67° C | 42% | 1007.9 hPa | 0 mm | - | 42 W/m² | - |
| 1777934428 | 22.22° C | 41% | 1007.9 hPa | 0 mm | - | 81 W/m² | - |
| 1777934125 | 22.22° C | 41% | 1007.8 hPa | 0 mm | - | 45 W/m² | - |
| 1777933821 | 22.22° C | 40% | 1007.7 hPa | 0 mm | - | 116 W/m² | - |
| 1777933518 | 22.78° C | 41% | 1007.7 hPa | 0 mm | - | 117 W/m² | - |
| 1777933216 | 22.78° C | 42% | 1007.7 hPa | 0 mm | - | 134 W/m² | - |
| 1777932913 | 22.22° C | 40% | 1008 hPa | 0 mm | - | 116 W/m² | - |
| 1777932609 | 22.78° C | 40% | 1008.1 hPa | 0 mm | - | 162 W/m² | - |
| 1777932306 | 23.33° C | 39% | 1008 hPa | 0 mm | - | 185 W/m² | - |
| 1777932003 | 22.78° C | 40% | 1008.2 hPa | 0 mm | - | 206 W/m² | - |
| 1777931699 | 22.78° C | 41% | 1008.1 hPa | 0 mm | - | 225 W/m² | - |
* Rain latest hour (hover to see other rain measurements)
** Current wind speed in m/s (hover to see current wind gust speed)